ONEWEB-0303 (49187 NORAD) Tracking and Keplerian Element Data

This shows tracking and keplerian element data for the satellite.

Feedback or suggestion? Click here.




ElementValue
Catalog49187
NameONEWEB-0303
Epoch Orbit364
Epoch Day287.91667824
Epoch Year2021
RAAN317.9621
Inclination87.4968
Eccentricity0.001776
Argument of Perigee193.2481
Mean Anonmoly211.0989
Mean Motion14.90288353
Decay Rate-0.01324506
L11 49187U 21083B 21287.91667824 -.01324506 00000-0 -14793+0 0 9992
L22 49187 87.4968 317.9621 0017760 193.2481 211.0989 14.90288353 3647

Live tracking and technical data element details for ONEWEB-0303 (NORAD 49187). ONEWEB-0303 can be tracked NOW for your location showing map with azimuth and elevation plus other details from your city location.

Track the satellite on the map from your city or location and see movement details for azimuth, elevation, latitude, longitude, range, height, and movement on the map or in text.







IsCatalogInMostPopularTable: catalog: 49187, numindb: 12
Update: records affected: 1



GetName: 49187 ONEWEB-0303

Hit Count: updated at: Tue, 19 Oct 2021 09:39:50 GMT